This is the latest recevied weather packets stored in our database for station/object WD4IXD. If no packets are shown the sender has not sent any weather packets the latest 10 day(s).
| Time | Temp. | Humidity | Pressure | Rain* | Wind** | Luminosity | Snow |
|---|---|---|---|---|---|---|---|
| 1777162204 | 11.67° C | 43% | 1011.7 hPa | 0 mm | - | 70 W/m² | - |
| 1777161904 | 12.22° C | 43% | 1011.5 hPa | 0 mm | - | 79 W/m² | - |
| 1777161604 | 11.67° C | 43% | 1011.5 hPa | 0 mm | - | 90 W/m² | - |
| 1777161304 | 12.22° C | 42% | 1011.6 hPa | 0 mm | - | 86 W/m² | - |
| 1777161015 | 12.22° C | 42% | 1011.4 hPa | 0 mm | - | 98 W/m² | - |
| 1777160715 | 12.78° C | 41% | 1011.3 hPa | 0 mm | - | 84 W/m² | - |
| 1777160404 | 12.78° C | 41% | 1011.4 hPa | 0 mm | - | 100 W/m² | - |
| 1777160104 | 12.78° C | 41% | 1011.4 hPa | 0 mm | - | 116 W/m² | - |
| 1777159815 | 12.78° C | 41% | 1011.2 hPa | 0 mm | - | 120 W/m² | - |
| 1777159504 | 12.78° C | 41% | 1011.2 hPa | 0 mm | - | 135 W/m² | - |
| 1777159215 | 13.33° C | 40% | 1011.2 hPa | 0 mm | - | 127 W/m² | - |
| 1777158903 | 13.33° C | 39% | 1011.3 hPa | 0 mm | - | 130 W/m² | - |
| 1777158615 | 13.33° C | 39% | 1011.2 hPa | 0 mm | - | 135 W/m² | - |
| 1777158315 | 13.89° C | 38% | 1011.2 hPa | 0 mm | - | 163 W/m² | - |
| 1777158015 | 13.89° C | 38% | 1011.1 hPa | 0 mm | - | 214 W/m² | - |
| 1777157715 | 14.44° C | 38% | 1011.1 hPa | 0 mm | - | 199 W/m² | - |
| 1777157404 | 14.44° C | 37% | 1011 hPa | 0 mm | - | 181 W/m² | - |
| 1777157114 | 14.44° C | 37% | 1010.9 hPa | 0 mm | - | 209 W/m² | - |
| 1777156804 | 14.44° C | 37% | 1010.8 hPa | 0 mm | - | 297 W/m² | - |
| 1777156515 | 14.44° C | 37% | 1010.8 hPa | 0 mm | - | 301 W/m² | - |
| 1777156204 | 14.44° C | 37% | 1010.9 hPa | 0 mm | - | 292 W/m² | - |
| 1777155915 | 14.44° C | 37% | 1010.9 hPa | 0 mm | - | 258 W/m² | - |
| 1777155604 | 14.44° C | 36% | 1010.7 hPa | 0 mm | - | 225 W/m² | - |
| 1777155315 | 15° C | 36% | 1010.7 hPa | 0 mm | - | 227 W/m² | - |
| 1777155003 | 15° C | 36% | 1010.6 hPa | 0 mm | - | 250 W/m² | - |
* Rain latest hour (hover to see other rain measurements)
** Current wind speed in m/s (hover to see current wind gust speed)